Paso Robles, CA

4:01 PM PST on December 14, 2019 (GMT -0800)
Paso Robles Municipal

Weather History for KPRB - October, 2019

Change the Weather History Date:

Sunday, October 20, 2019

  Actual Average Record
Temperature  
Mean Temperature 66 °F 61 °F  
Max Temperature 80 °F 78 °F 95 °F (1964)
Min Temperature 52 °F 44 °F 26 °F (1949)
Degree Days  
Heating Degree Days 0 5  
Month to date heating degree days 85 67  
Since 1 July heating degree days 111 99  
Cooling Degree Days 1 1  
Month to date cooling degree days 12 34  
Year to date cooling degree days 1047 925  
Growing Degree Days 16 (Base 50)    
Moisture  
Dew Point 49 °F    
Average Humidity 68    
Maximum Humidity 96    
Minimum Humidity 27    
Precipitation  
Precipitation 0.00 in 0.02 in 0.32 in (1979)
Month to date precipitation 0.00 0.31  
Year to date precipitation 11.28 9.43  
Sea Level Pressure  
Sea Level Pressure 30.06 in    
Wind  
Wind Speed 6 mph ()    
Max Wind Speed 15 mph    
Max Gust Speed 27 mph    
Visibility 10.0 miles    
Events      
T = Trace of Precipitation, MM = Missing Value Source: Averaged Metar Reports

Daily Weather History Graph

Daily Weather History Graph

Search for Another Location

Airport or City:

Astronomy

Oct. 20, 2019 Rise Set
Actual Time 7:13 AM PDT 6:20 PM PDT
Civil Twilight 6:47 AM PDT 6:46 PM PDT
Nautical Twilight 6:17 AM PDT 7:16 PM PDT
Astronomical Twilight 5:48 AM PDT 7:45 PM PDT
Moon 11:42 PM PDT (10/20) 1:37 PM PDT (10/20)
Length of Visible Light 11h 59m
Length of Day
11h 07m
Waning Gibbous, 58% of the Moon is Illuminated
Oct 20
Waning Gibbous
Oct 21
Last Quarter
Oct 27
New
Nov 4
First Quarter
Nov 12
Full

Hourly Weather History & Observations

Time (PDT) Temp. Dew Point Humidity Pressure Visibility Wind Dir Wind Speed Gust Speed Precip Events Conditions
12:21 AM 57.0 °F 55.9 °F 96% 30.03 in 10.0 mi NW 9.2 mph - N/A   Mostly Cloudy
12:53 AM 57.9 °F 55.9 °F 93% 30.02 in 10.0 mi NNW 15.0 mph - N/A   Overcast
1:53 AM 57.9 °F 55.0 °F 90% 30.02 in 10.0 mi North - - N/A   Mostly Cloudy
2:41 AM 57.9 °F 54.0 °F 87% 30.04 in 10.0 mi NNW 11.5 mph - N/A   Overcast
2:53 AM 57.9 °F 54.0 °F 87% 30.02 in 10.0 mi NNW 10.4 mph - N/A   Overcast
3:53 AM 53.1 °F 48.9 °F 86% 30.02 in 10.0 mi East 3.5 mph - N/A   Overcast
4:33 AM 54.0 °F 51.1 °F 90% 30.04 in 10.0 mi ENE 4.6 mph - N/A   Overcast
4:53 AM 54.0 °F 50.0 °F 86% 30.02 in 10.0 mi Calm Calm - N/A   Overcast
5:53 AM 55.0 °F 53.1 °F 93% 30.04 in 10.0 mi NW 8.1 mph - N/A   Overcast
6:53 AM 54.0 °F 51.1 °F 90% 30.05 in 10.0 mi North 3.5 mph - N/A   Overcast
7:53 AM 54.0 °F 51.1 °F 90% 30.07 in 10.0 mi NNE 4.6 mph - N/A   Overcast
8:53 AM 54.0 °F 52.0 °F 93% 30.10 in 10.0 mi ENE 3.5 mph - N/A   Overcast
9:05 AM 54.0 °F 52.0 °F 93% 30.11 in 10.0 mi Calm Calm - N/A   Overcast
9:32 AM 55.0 °F 52.0 °F 89% 30.12 in 10.0 mi Variable 3.5 mph - N/A   Overcast
9:53 AM 55.9 °F 51.1 °F 84% 30.11 in 10.0 mi Variable 3.5 mph - N/A   Mostly Cloudy
10:02 AM 57.9 °F 52.0 °F 81% 30.11 in 10.0 mi Calm Calm - N/A   Scattered Clouds
10:53 AM 63.0 °F 53.1 °F 70% 30.09 in 10.0 mi NW 5.8 mph - N/A   Clear
11:53 AM 69.1 °F 52.0 °F 54% 30.08 in 10.0 mi NW 4.6 mph - N/A   Clear
12:53 PM 73.0 °F 51.1 °F 46% 30.06 in 10.0 mi NW 8.1 mph - N/A   Clear
1:53 PM 75.9 °F 48.9 °F 38% 30.04 in 10.0 mi North 3.5 mph - N/A   Clear
2:53 PM 77.0 °F 48.9 °F 37% 30.02 in 10.0 mi West 3.5 mph - N/A   Clear
3:53 PM 79.0 °F 48.0 °F 34% 30.01 in 10.0 mi NW 5.8 mph - N/A   Clear
4:53 PM 80.1 °F 46.0 °F 30% 30.00 in 10.0 mi Variable 6.9 mph - N/A   Clear
5:53 PM 75.0 °F 39.0 °F 27% 30.01 in 10.0 mi East 10.4 mph - N/A   Clear
6:53 PM 69.1 °F 39.0 °F 33% 30.03 in 10.0 mi South 4.6 mph - N/A   Clear
7:53 PM 66.0 °F 37.9 °F 36% 30.05 in 10.0 mi NNE 3.5 mph - N/A   Clear
8:53 PM 64.0 °F 37.9 °F 38% 30.07 in 10.0 mi Calm Calm - N/A   Clear
9:53 PM 57.9 °F 42.1 °F 56% 30.08 in 10.0 mi NNW 6.9 mph - N/A   Clear
10:53 PM 59.0 °F 43.0 °F 55% 30.10 in 10.0 mi Calm Calm - N/A   Clear
11:53 PM 54.0 °F 41.0 °F 62% 30.11 in 10.0 mi Calm Calm - N/A   Clear